Location: DARK SKY Beskydy - Park tmavé oblohy, www.darkskybeskydy.cz
(49.4926°N, 18.5016°E)
Time: 03:31:09
(UTC+01:00)

Envisat - Pass Details

Date: 06 December 2022
Orbit: 763 x 765 km, 98.2° (Epoch: 05 February)

Event Time Altitude Azimuth Distance (km) Brightness Sun altitude
Rises 03:27:09 0° 20° (NNE) 3,244 6.6 -37.8°
Reaches altitude 10° 03:29:37 10° 28° (NNE) 2,313 5.8 -37.4°
Enters shadow 03:30:57 17° 36° (NE) 1,850 5.3 -37.2°
